SFJ43 RJTT-RJFF

Flight info

Callsign SFJ43
Flight time 1h 30m
Altitude 36000
Route TIARA GUSRO Y20 KIRIN
Aircraft A20N/M-SDE2E3FGHIRWXY/LB1

Departure

Time 2026-05-07 03:10
Airport Tokyo Haneda International Airport (RJTT)

Arrival

Time 2026-05-07 04:41
Airport Fukuoka Airport (RJFF)
Time Latitude Longitude Altitude Speed Heading
2026-05-07 02:57 35.54546 139.78705 29 ft 0 kts 330°
2026-05-07 03:01 35.54540 139.78709 29 ft 4 kts 330°
2026-05-07 03:01 35.54517 139.78726 29 ft 4 kts 330°
2026-05-07 03:01 35.54494 139.78742 30 ft 4 kts 332°
2026-05-07 03:01 35.54470 139.78757 30 ft 4 kts 334°
2026-05-07 03:02 35.54445 139.78771 31 ft 4 kts 339°
2026-05-07 03:02 35.54419 139.78780 32 ft 4 kts 355°
2026-05-07 03:02 35.54397 139.78776 33 ft 2 kts 57°
2026-05-07 03:02 35.54394 139.78770 32 ft 0 kts 60°
2026-05-07 03:05 35.54395 139.78772 33 ft 1 kts 60°
2026-05-07 03:05 35.54404 139.78791 33 ft 7 kts 60°
2026-05-07 03:05 35.54452 139.78896 35 ft 19 kts 61°
2026-05-07 03:05 35.54534 139.79065 38 ft 28 kts 60°
2026-05-07 03:06 35.54629 139.79267 30 ft 26 kts 59°
2026-05-07 03:06 35.54725 139.79471 27 ft 25 kts 58°
2026-05-07 03:06 35.54802 139.79537 27 ft 14 kts 348°
2026-05-07 03:06 35.54899 139.79474 27 ft 21 kts 329°
2026-05-07 03:07 35.55058 139.79360 28 ft 29 kts 330°
2026-05-07 03:07 35.55239 139.79228 28 ft 31 kts 330°
2026-05-07 03:07 35.55432 139.79095 30 ft 33 kts 329°
2026-05-07 03:07 35.55627 139.78954 28 ft 23 kts 328°
2026-05-07 03:08 35.55741 139.78875 26 ft 20 kts 332°
2026-05-07 03:08 35.55869 139.78785 23 ft 23 kts 329°
2026-05-07 03:08 35.56005 139.78688 25 ft 13 kts 330°
2026-05-07 03:08 35.56083 139.78684 25 ft 13 kts 57°
2026-05-07 03:09 35.56134 139.78784 22 ft 16 kts 58°
2026-05-07 03:09 35.56176 139.78875 24 ft 7 kts 61°
2026-05-07 03:09 35.56191 139.78927 28 ft 6 kts 97°
2026-05-07 03:09 35.56160 139.78959 28 ft 7 kts 147°
2026-05-07 03:10 35.56077 139.79017 27 ft 40 kts 152°
2026-05-07 03:10 35.55590 139.79361 27 ft 118 kts 150°
2026-05-07 03:10 35.54705 139.79999 192 ft 162 kts 151°
2026-05-07 03:10 35.53789 139.80738 1071 ft 159 kts 143°
2026-05-07 03:11 35.52977 139.81694 1910 ft 167 kts 135°
2026-05-07 03:11 35.52168 139.82809 2506 ft 185 kts 134°
2026-05-07 03:11 35.51243 139.84059 2997 ft 205 kts 136°
2026-05-07 03:11 35.50194 139.85399 3430 ft 229 kts 137°
2026-05-07 03:12 35.49018 139.86846 3959 ft 250 kts 138°
2026-05-07 03:12 35.47746 139.88382 4546 ft 267 kts 139°
2026-05-07 03:12 35.46449 139.90043 5417 ft 274 kts 129°
2026-05-07 03:12 35.45680 139.92225 6268 ft 288 kts 102°
2026-05-07 03:13 35.45769 139.94702 7091 ft 297 kts 75°
2026-05-07 03:13 35.46724 139.96964 7923 ft 304 kts 51°
2026-05-07 03:13 35.48263 139.98741 8753 ft 307 kts 29°
2026-05-07 03:13 35.50258 139.99621 9563 ft 306 kts
2026-05-07 03:14 35.52353 139.99418 10301 ft 305 kts 341°
2026-05-07 03:14 35.54446 139.98612 10601 ft 326 kts 336°
2026-05-07 03:14 35.58961 139.96746 11512 ft 355 kts 340°
2026-05-07 03:15 35.61427 139.96200 12261 ft 364 kts 350°
2026-05-07 03:15 35.63985 139.96167 12979 ft 373 kts 359°
2026-05-07 03:15 35.66600 139.96358 13685 ft 378 kts 358°
2026-05-07 03:15 35.69199 139.96097 14311 ft 373 kts 339°
2026-05-07 03:16 35.71533 139.94831 14933 ft 364 kts 320°
2026-05-07 03:16 35.73344 139.92722 15549 ft 356 kts 300°
2026-05-07 03:16 35.74436 139.90043 16167 ft 349 kts 281°
2026-05-07 03:16 35.74845 139.87105 16751 ft 349 kts 273°
2026-05-07 03:17 35.75159 139.84118 17353 ft 354 kts 274°
2026-05-07 03:17 35.75491 139.81100 17955 ft 357 kts 274°
2026-05-07 03:17 35.75840 139.78040 18481 ft 362 kts 274°
2026-05-07 03:17 35.76046 139.74941 18980 ft 362 kts 265°
2026-05-07 03:18 35.75718 139.71871 19466 ft 363 kts 253°
2026-05-07 03:18 35.74864 139.68996 19941 ft 365 kts 242°
2026-05-07 03:18 35.73674 139.66213 20433 ft 368 kts 241°
2026-05-07 03:18 35.72473 139.63406 20937 ft 372 kts 242°
2026-05-07 03:19 35.71265 139.60572 21436 ft 375 kts 242°
2026-05-07 03:19 35.70048 139.57712 21911 ft 379 kts 242°
2026-05-07 03:19 35.68818 139.54823 22403 ft 382 kts 242°
2026-05-07 03:19 35.67578 139.51913 22883 ft 386 kts 242°
2026-05-07 03:20 35.66538 139.48850 23351 ft 390 kts 251°
2026-05-07 03:20 35.65924 139.45584 23768 ft 395 kts 261°
2026-05-07 03:20 35.65761 139.42199 24161 ft 400 kts 269°
2026-05-07 03:20 35.65836 139.38767 24603 ft 403 kts 269°
2026-05-07 03:21 35.65901 139.35315 25001 ft 405 kts 269°
2026-05-07 03:21 35.65961 139.31834 25394 ft 408 kts 269°
2026-05-07 03:21 35.66017 139.28333 25778 ft 411 kts 269°
2026-05-07 03:21 35.66071 139.24808 26158 ft 414 kts 269°
2026-05-07 03:22 35.66125 139.21297 26520 ft 416 kts 269°
2026-05-07 03:22 35.66178 139.17733 26865 ft 419 kts 269°
2026-05-07 03:22 35.66227 139.14141 27256 ft 420 kts 268°
2026-05-07 03:22 35.66104 139.10543 27638 ft 422 kts 265°
2026-05-07 03:23 35.65940 139.06927 27978 ft 425 kts 265°
2026-05-07 03:23 35.65779 139.03291 28351 ft 427 kts 265°
2026-05-07 03:23 35.65617 138.99620 28710 ft 430 kts 265°
2026-05-07 03:23 35.65454 138.95949 29060 ft 432 kts 265°
2026-05-07 03:24 35.65287 138.92237 29376 ft 435 kts 265°
2026-05-07 03:24 35.65119 138.88522 29755 ft 436 kts 265°
2026-05-07 03:24 35.64950 138.84828 30036 ft 440 kts 265°
2026-05-07 03:24 35.64775 138.81018 30344 ft 441 kts 265°
2026-05-07 03:25 35.64603 138.77296 30667 ft 442 kts 265°
2026-05-07 03:25 35.64428 138.73515 30969 ft 444 kts 265°
2026-05-07 03:25 35.64251 138.69718 31308 ft 444 kts 265°
2026-05-07 03:25 35.64072 138.65925 31704 ft 443 kts 265°
2026-05-07 03:26 35.63882 138.62139 32117 ft 441 kts 265°
2026-05-07 03:26 35.63685 138.58375 32531 ft 440 kts 265°
2026-05-07 03:26 35.63553 138.55889 32765 ft 439 kts 265°
2026-05-07 03:26 35.63288 138.50891 33271 ft 437 kts 265°
2026-05-07 03:27 35.63091 138.47169 33637 ft 436 kts 265°
2026-05-07 03:27 35.62895 138.43501 33992 ft 434 kts 265°
2026-05-07 03:27 35.62698 138.39805 34299 ft 433 kts 265°
2026-05-07 03:27 35.62500 138.36123 34608 ft 431 kts 265°
2026-05-07 03:28 35.62302 138.32451 34885 ft 430 kts 265°
2026-05-07 03:28 35.62168 138.29979 35080 ft 429 kts 265°
2026-05-07 03:28 35.61903 138.25134 35517 ft 426 kts 265°
2026-05-07 03:28 35.61772 138.22734 35690 ft 425 kts 265°
2026-05-07 03:29 35.61572 138.19114 35939 ft 424 kts 265°
2026-05-07 03:29 35.61170 138.11895 36023 ft 421 kts 265°
2026-05-07 03:30 35.60766 138.04711 36022 ft 422 kts 265°
2026-05-07 03:30 35.60359 137.97552 36023 ft 422 kts 265°
2026-05-07 03:31 35.59946 137.90368 36025 ft 421 kts 265°
2026-05-07 03:31 35.59529 137.83192 36026 ft 421 kts 265°
2026-05-07 03:32 35.59089 137.76024 36026 ft 421 kts 264°
2026-05-07 03:32 35.58547 137.68863 36027 ft 421 kts 264°
2026-05-07 03:33 35.58001 137.61683 36020 ft 421 kts 264°
2026-05-07 03:33 35.57435 137.54545 36016 ft 419 kts 261°
2026-05-07 03:34 35.56188 137.47592 36019 ft 419 kts 255°
2026-05-07 03:34 35.54665 137.40673 36015 ft 419 kts 255°
2026-05-07 03:35 35.53150 137.33755 36015 ft 420 kts 255°
2026-05-07 03:35 35.51630 137.26840 36001 ft 419 kts 255°
2026-05-07 03:36 35.50104 137.19930 35995 ft 419 kts 255°
2026-05-07 03:36 35.48586 137.13075 35997 ft 418 kts 255°
2026-05-07 03:37 35.47057 137.06191 35993 ft 418 kts 255°
2026-05-07 03:37 35.45524 136.99306 35987 ft 418 kts 255°
2026-05-07 03:38 35.43986 136.92421 35980 ft 417 kts 255°
2026-05-07 03:38 35.42457 136.85600 35978 ft 417 kts 255°
2026-05-07 03:39 35.40917 136.78744 35975 ft 417 kts 255°
2026-05-07 03:39 35.39372 136.71888 35974 ft 417 kts 255°
2026-05-07 03:40 35.37822 136.65029 35982 ft 417 kts 255°
2026-05-07 03:40 35.36269 136.58181 35982 ft 417 kts 255°
2026-05-07 03:41 35.34712 136.51329 35994 ft 417 kts 255°
2026-05-07 03:41 35.33152 136.44488 35981 ft 416 kts 255°
2026-05-07 03:42 35.31603 136.37707 35980 ft 416 kts 255°
2026-05-07 03:42 35.30038 136.30874 35983 ft 416 kts 255°
2026-05-07 03:43 35.28468 136.24044 35988 ft 417 kts 255°
2026-05-07 03:43 35.26900 136.17236 35989 ft 417 kts 255°
2026-05-07 03:44 35.25324 136.10415 35990 ft 417 kts 254°
2026-05-07 03:44 35.23742 136.03588 35996 ft 417 kts 254°
2026-05-07 03:45 35.22155 135.96758 35996 ft 417 kts 254°
2026-05-07 03:45 35.20563 135.89926 35989 ft 416 kts 254°
2026-05-07 03:46 35.18973 135.83119 35995 ft 417 kts 254°
2026-05-07 03:46 35.17590 135.76237 35994 ft 417 kts 258°
2026-05-07 03:47 35.16442 135.69332 35989 ft 416 kts 258°
2026-05-07 03:47 35.15280 135.62423 35985 ft 415 kts 258°
2026-05-07 03:48 35.14112 135.55512 35984 ft 415 kts 258°
2026-05-07 03:48 35.12943 135.48622 35990 ft 414 kts 258°
2026-05-07 03:49 35.11770 135.41733 35992 ft 414 kts 258°
2026-05-07 03:49 35.10594 135.34853 35989 ft 413 kts 258°
2026-05-07 03:50 35.09421 135.28012 35988 ft 413 kts 258°
2026-05-07 03:50 35.08241 135.21155 35989 ft 412 kts 258°
2026-05-07 03:51 35.07058 135.14306 35986 ft 412 kts 258°
2026-05-07 03:51 35.05868 135.07445 35992 ft 412 kts 258°
2026-05-07 03:52 35.04679 135.00604 35991 ft 412 kts 257°
2026-05-07 03:52 35.03487 134.93772 35993 ft 411 kts 257°
2026-05-07 03:53 35.02298 134.86990 35994 ft 411 kts 257°
2026-05-07 03:53 35.01101 134.80183 35985 ft 410 kts 257°
2026-05-07 03:54 34.99901 134.73379 35991 ft 410 kts 257°
2026-05-07 03:54 34.98687 134.66584 35995 ft 410 kts 256°
2026-05-07 03:55 34.97348 134.59822 35999 ft 409 kts 256°
2026-05-07 03:55 34.96000 134.53084 35999 ft 408 kts 256°
2026-05-07 03:56 34.94661 134.46343 35999 ft 409 kts 256°
2026-05-07 03:56 34.93325 134.39614 36000 ft 408 kts 256°
2026-05-07 03:57 34.91994 134.32926 35996 ft 408 kts 256°
2026-05-07 03:57 34.90651 134.26199 35989 ft 408 kts 256°
2026-05-07 03:58 34.89305 134.19484 35991 ft 407 kts 256°
2026-05-07 03:58 34.87956 134.12771 35996 ft 407 kts 255°
2026-05-07 03:59 34.86616 134.06125 35996 ft 407 kts 255°
2026-05-07 03:59 34.85260 133.99417 35998 ft 406 kts 255°
2026-05-07 04:00 34.83903 133.92726 35995 ft 407 kts 255°
2026-05-07 04:00 34.82552 133.86085 35999 ft 406 kts 255°
2026-05-07 04:01 34.81165 133.79411 35997 ft 406 kts 255°
2026-05-07 04:01 34.79753 133.72746 36000 ft 406 kts 255°
2026-05-07 04:02 34.78345 133.66098 36005 ft 405 kts 255°
2026-05-07 04:02 34.76944 133.59489 36001 ft 405 kts 255°
2026-05-07 04:03 34.75533 133.52851 35999 ft 405 kts 254°
2026-05-07 04:03 34.74123 133.46233 35997 ft 403 kts 254°
2026-05-07 04:04 34.72722 133.39677 35991 ft 402 kts 254°
2026-05-07 04:04 34.71312 133.33105 35987 ft 402 kts 254°
2026-05-07 04:05 34.69900 133.26535 35995 ft 401 kts 254°
2026-05-07 04:05 34.68488 133.19985 35987 ft 400 kts 254°
2026-05-07 04:06 34.67073 133.13440 35985 ft 400 kts 254°
2026-05-07 04:06 34.65659 133.06917 35982 ft 399 kts 254°
2026-05-07 04:07 34.64240 133.00393 35987 ft 399 kts 254°
2026-05-07 04:07 34.62818 132.93871 35983 ft 399 kts 254°
2026-05-07 04:08 34.61405 132.87405 35984 ft 399 kts 254°
2026-05-07 04:08 34.59976 132.80890 35987 ft 399 kts 253°
2026-05-07 04:09 34.58544 132.74377 36002 ft 400 kts 253°
2026-05-07 04:09 34.57103 132.67840 35999 ft 401 kts 253°
2026-05-07 04:10 34.55656 132.61296 36003 ft 401 kts 253°
2026-05-07 04:10 34.54216 132.54802 35999 ft 401 kts 253°
2026-05-07 04:11 34.52764 132.48268 36010 ft 401 kts 253°
2026-05-07 04:11 34.51309 132.41736 35988 ft 400 kts 253°
2026-05-07 04:12 34.49856 132.35242 35985 ft 398 kts 253°
2026-05-07 04:12 34.48396 132.28744 35998 ft 401 kts 253°
2026-05-07 04:13 34.46923 132.22196 35994 ft 402 kts 253°
2026-05-07 04:13 34.45461 132.15719 35998 ft 402 kts 253°
2026-05-07 04:14 34.43984 132.09188 35998 ft 402 kts 253°
2026-05-07 04:14 34.42505 132.02665 35987 ft 401 kts 254°
2026-05-07 04:15 34.41021 131.96135 35998 ft 402 kts 253°
2026-05-07 04:15 34.39781 131.90703 35991 ft 401 kts 253°
2026-05-07 04:16 34.38047 131.83123 35998 ft 402 kts 253°
2026-05-07 04:16 34.36797 131.77666 35644 ft 400 kts 253°
2026-05-07 04:16 34.36047 131.74401 34848 ft 406 kts 253°
2026-05-07 04:17 34.35283 131.71079 33645 ft 413 kts 253°
2026-05-07 04:17 34.34503 131.67690 32230 ft 420 kts 253°
2026-05-07 04:17 34.33713 131.64264 30902 ft 425 kts 253°
2026-05-07 04:17 34.32926 131.60850 30029 ft 427 kts 253°
2026-05-07 04:18 34.32128 131.57399 29342 ft 423 kts 253°
2026-05-07 04:18 34.31342 131.54009 28923 ft 412 kts 253°
2026-05-07 04:18 34.30578 131.50712 28533 ft 403 kts 253°
2026-05-07 04:18 34.29821 131.47453 27649 ft 405 kts 253°
2026-05-07 04:19 34.29048 131.44138 26534 ft 414 kts 253°
2026-05-07 04:19 34.28263 131.40772 25795 ft 413 kts 254°
2026-05-07 04:19 34.27490 131.37456 25357 ft 405 kts 254°
2026-05-07 04:19 34.26733 131.34213 24878 ft 398 kts 254°
2026-05-07 04:20 34.25981 131.30994 24290 ft 395 kts 254°
2026-05-07 04:20 34.25244 131.27845 23702 ft 393 kts 254°
2026-05-07 04:20 34.24498 131.24666 23019 ft 391 kts 254°
2026-05-07 04:21 34.23034 131.18424 21910 ft 381 kts 254°
2026-05-07 04:21 34.22313 131.15361 21330 ft 377 kts 254°
2026-05-07 04:21 34.21600 131.12333 20763 ft 374 kts 254°
2026-05-07 04:21 34.20891 131.09326 20182 ft 371 kts 254°
2026-05-07 04:22 34.20183 131.06330 19595 ft 369 kts 253°
2026-05-07 04:22 34.19482 131.03360 19004 ft 367 kts 253°
2026-05-07 04:22 34.18669 131.00454 18436 ft 364 kts 248°
2026-05-07 04:22 34.17664 130.97657 17816 ft 362 kts 246°
2026-05-07 04:23 34.16683 130.94913 17294 ft 358 kts 247°
2026-05-07 04:23 34.15694 130.92131 16725 ft 355 kts 247°
2026-05-07 04:23 34.14738 130.89443 16167 ft 352 kts 247°
2026-05-07 04:23 34.13773 130.86731 15605 ft 350 kts 246°
2026-05-07 04:24 34.12530 130.84230 15056 ft 348 kts 230°
2026-05-07 04:24 34.10686 130.82350 14488 ft 350 kts 212°
2026-05-07 04:24 34.08400 130.81293 13928 ft 353 kts 194°
2026-05-07 04:24 34.05979 130.80719 13305 ft 353 kts 193°
2026-05-07 04:25 34.03578 130.80166 12760 ft 350 kts 193°
2026-05-07 04:25 34.01185 130.79613 12196 ft 348 kts 193°
2026-05-07 04:25 33.98844 130.79069 11649 ft 346 kts 193°
2026-05-07 04:25 33.96476 130.78515 11089 ft 345 kts 193°
2026-05-07 04:26 33.94124 130.77963 10541 ft 343 kts 193°
2026-05-07 04:26 33.91809 130.77421 10335 ft 332 kts 193°
2026-05-07 04:26 33.89588 130.76902 10203 ft 317 kts 193°
2026-05-07 04:26 33.87465 130.76405 10091 ft 304 kts 193°
2026-05-07 04:27 33.85431 130.75928 9988 ft 292 kts 193°
2026-05-07 04:27 33.83463 130.75466 9711 ft 286 kts 193°
2026-05-07 04:27 33.81538 130.75012 9327 ft 284 kts 193°
2026-05-07 04:27 33.79601 130.74556 8936 ft 283 kts 193°
2026-05-07 04:28 33.77676 130.74104 8563 ft 281 kts 193°
2026-05-07 04:28 33.75774 130.73658 8256 ft 276 kts 192°
2026-05-07 04:28 33.73898 130.73219 8028 ft 270 kts 192°
2026-05-07 04:28 33.72037 130.72782 7971 ft 275 kts 192°
2026-05-07 04:29 33.70165 130.72345 7972 ft 273 kts 192°
2026-05-07 04:29 33.68292 130.71909 7969 ft 273 kts 192°
2026-05-07 04:29 33.66431 130.71475 7922 ft 271 kts 192°
2026-05-07 04:29 33.64608 130.71052 7852 ft 261 kts 192°
2026-05-07 04:30 33.62870 130.70648 7731 ft 246 kts 192°
2026-05-07 04:30 33.61252 130.70273 7562 ft 234 kts 192°
2026-05-07 04:30 33.59667 130.69905 7195 ft 230 kts 193°
2026-05-07 04:30 33.58125 130.69545 6973 ft 223 kts 192°
2026-05-07 04:31 33.56595 130.69187 6997 ft 228 kts 192°
2026-05-07 04:31 33.55002 130.68814 7005 ft 248 kts 192°
2026-05-07 04:31 33.53206 130.68396 6998 ft 272 kts 192°
2026-05-07 04:31 33.51362 130.67969 6997 ft 267 kts 192°
2026-05-07 04:32 33.49524 130.67546 6993 ft 270 kts 192°
2026-05-07 04:32 33.47653 130.67371 6909 ft 272 kts 179°
2026-05-07 04:32 33.45783 130.67745 6684 ft 271 kts 168°
2026-05-07 04:32 33.43960 130.68259 6429 ft 267 kts 168°
2026-05-07 04:33 33.42205 130.68744 6277 ft 251 kts 169°
2026-05-07 04:33 33.40573 130.69186 6150 ft 236 kts 169°
2026-05-07 04:33 33.39023 130.69603 5954 ft 223 kts 169°
2026-05-07 04:33 33.37503 130.69748 5494 ft 219 kts 193°
2026-05-07 04:34 33.36176 130.68939 5017 ft 216 kts 225°
2026-05-07 04:34 33.35335 130.67445 4507 ft 218 kts 240°
2026-05-07 04:34 33.34601 130.65871 4129 ft 213 kts 240°
2026-05-07 04:34 33.34010 130.64300 3974 ft 205 kts 259°
2026-05-07 04:35 33.34121 130.62540 3991 ft 225 kts 288°
2026-05-07 04:35 33.35050 130.61040 3897 ft 227 kts 321°
2026-05-07 04:35 33.36402 130.60073 3828 ft 227 kts 331°
2026-05-07 04:35 33.37810 130.59200 3795 ft 227 kts 328°
2026-05-07 04:36 33.39178 130.58268 3792 ft 226 kts 328°
2026-05-07 04:36 33.40529 130.57356 3730 ft 228 kts 328°
2026-05-07 04:36 33.41919 130.56411 3453 ft 231 kts 328°
2026-05-07 04:36 33.43316 130.55465 3130 ft 228 kts 329°
2026-05-07 04:37 33.44658 130.54556 2828 ft 216 kts 328°
2026-05-07 04:37 33.45936 130.53681 2546 ft 208 kts 329°
2026-05-07 04:37 33.47157 130.52851 2297 ft 192 kts 328°
2026-05-07 04:37 33.48276 130.52093 2044 ft 178 kts 328°
2026-05-07 04:38 33.49324 130.51379 1799 ft 167 kts 328°
2026-05-07 04:38 33.50296 130.50715 1602 ft 153 kts 328°
2026-05-07 04:38 33.51190 130.50110 1397 ft 143 kts 328°
2026-05-07 04:38 33.52027 130.49538 1237 ft 134 kts 328°
2026-05-07 04:39 33.52837 130.48987 1077 ft 135 kts 329°
2026-05-07 04:39 33.53640 130.48442 926 ft 132 kts 330°
2026-05-07 04:39 33.54440 130.47906 772 ft 131 kts 330°
2026-05-07 04:39 33.55239 130.47361 574 ft 134 kts 328°
2026-05-07 04:40 33.56050 130.46802 393 ft 134 kts 328°
2026-05-07 04:40 33.56829 130.46274 262 ft 127 kts 328°
2026-05-07 04:40 33.57596 130.45753 95 ft 127 kts 328°
2026-05-07 04:40 33.58325 130.45251 37 ft 102 kts 331°
2026-05-07 04:41 33.58773 130.44945 34 ft 49 kts 329°
2026-05-07 04:41 33.59029 130.44796 27 ft 39 kts 344°
2026-05-07 04:41 33.59261 130.44768 26 ft 29 kts 359°
2026-05-07 04:41 33.59440 130.44719 25 ft 26 kts 329°
2026-05-07 04:42 33.59592 130.44614 26 ft 25 kts 331°
2026-05-07 04:42 33.59715 130.44530 26 ft 11 kts 329°
2026-05-07 04:42 33.59771 130.44526 30 ft 7 kts 56°
2026-05-07 04:42 33.59824 130.44558 27 ft 10 kts 344°
2026-05-07 04:43 33.59905 130.44505 24 ft 14 kts 330°
2026-05-07 04:43 33.59954 130.44498 23 ft 6 kts 46°
2026-05-07 04:43 33.59978 130.44543 27 ft 1 kts 60°
2026-05-07 04:43 33.59981 130.44550 27 ft 0 kts 61°